Regional Weather Roundup
Issued by NWS

Home | Current Version | Previous Version | Text Only | Print | Product List | Glossary Off
Versions: 1 2 3 4 5 6 7 8 9 10 11 12 13 14 15 16 17 18 19 20 21 22 23 24 25 26 27 28 29 30 31 32 33 34 35 36 37 38 39 40 41 42 43 44 45 46 47 48 49 50

633
ASUS44 KLIX 270001
RWRLA
LOUISIANA WEATHER ROUNDUP
NATIONAL WEATHER SERVICE NEW ORLEANS LA
600 PM CST THU FEB 26 2015

NOTE: "FAIR" INDICATES FEW OR NO CLOUDS BELOW 12,000 FEET WITH NO
      SIGNIFICANT WEATHER AND/OR OBSTRUCTIONS TO VISIBILITY.
      SKY/WX - SKY CONDITION AND SIGNIFICANT WEATHER.
      TMP - AIR TEMPERATURE.    DP   - DEWPOINT TEMPERATURE.
      RH  - RELATIVE HUMIDITY.  PRES - PRESSURE.
      HX  - HEAT INDEX.         WCI  - WIND CHILL INDEX.

*  THESE STATIONS ARE NOT NWS OR FAA STATIONS AND ARE NOT UNDER
   NWS QUALITY CONTROL.

LAZ040-048-061>063-065-066-069-270100-
SOUTHEAST LOUISIANA

CITY           SKY/WX    TMP DP  RH WIND       PRES   REMARKS
N.O. AUDUBON     N/A     48  37  63 MISG        N/A
6HR MIN TEMP:  44; 6HR MAX TEMP:  49;

N.O. INTL ARPT CLOUDY    48  32  53 N10       30.14R
6HR MIN TEMP:  42; 6HR MAX TEMP:  48;

N.O. LAKEFRONT CLOUDY    50  33  52 N17       30.15R
6HR MIN TEMP:  44; 6HR MAX TEMP:  50;

SLIDELL        MOCLDY    46  33  60 N5        30.13R
6HR MIN TEMP:  42; 6HR MAX TEMP:  50;

BATON ROUGE    PTCLDY    48  33  56 N7        30.16R
6HR MIN TEMP:  44; 6HR MAX TEMP:  53;

BOOTHVILLE     MOCLDY    47  38  71 N6        30.13R
6HR MIN TEMP:  42; 6HR MAX TEMP:  47;

BELLE CHASSE   MOCLDY    48  32  53 N8        30.13R
6HR MIN TEMP:  44; 6HR MAX TEMP:  49;

BOGALUSA*        N/A     47  33  58 N6        30.15R
6HR MIN TEMP:  42; 6HR MAX TEMP:  51;

GALLIANO*      PTCLDY    47  37  66 N7        30.14R
6HR MIN TEMP:  46; 6HR MAX TEMP:  50;

NEW ROADS*     NOT AVBL
GONZALES*      NOT AVBL
HAMMOND*       NOT AVBL
HOUMA*         NOT AVBL
PORT FOURCHON* CLEAR     46  37  71 N15       30.16R

$$

LAZ041-044-053-054-270100-
SOUTHWEST LOUISIANA

CITY           SKY/WX    TMP DP  RH WIND       PRES   REMARKS
LAKE CHARLES   PTCLDY    52  35  52 NE8       30.16R
6HR MIN TEMP:  46; 6HR MAX TEMP:  57;

LAFAYETTE      PTCLDY    46  34  62 N12       30.18R
6HR MIN TEMP:  44; 6HR MAX TEMP:  50;

PATTERSON      CLOUDY    48  34  57 N9        30.16R
6HR MIN TEMP:  43; 6HR MAX TEMP:  50;

SALT POINT       N/A     49  35  58 N5        30.14R
6HR MIN TEMP:  42; 6HR MAX TEMP:  51;

NEW IBERIA     PTCLDY    48  33  56 N14       30.18R
6HR MIN TEMP:  45; 6HR MAX TEMP:  51;

CHENAULT AIRPK CLEAR     52  36  54 NE10      30.17R

$$

LAZ027-028-270100-
CENTRAL LOUISIANA

CITY           SKY/WX    TMP DP  RH WIND       PRES   REMARKS
FORT POLK      CLEAR     42  34  72 N13G20    30.20R
6HR MIN TEMP:  42; 6HR MAX TEMP:  54;

ALEXANDRIA INT CLOUDY    44  34  67 NE9       30.22R
6HR MIN TEMP:  41; 6HR MAX TEMP:  51;

ALEXANDRIA     CLOUDY    44  33  65 VRB7      30.23R
6HR MIN TEMP:  43; 6HR MAX TEMP:  52;


$$

LAZ001-002-270100-
NORTHWEST LOUISIANA

CITY           SKY/WX    TMP DP  RH WIND       PRES   REMARKS
SHREVEPORT     MOCLDY    38  30  73 N9        30.28R WCI  31
6HR MIN TEMP:  37; 6HR MAX TEMP:  41;

BARKSDALE AFB  NOT AVBL
DTN SHREVEPORT CLOUDY    37  29  72 N6        30.29R WCI  32
6HR MIN TEMP:  37; 6HR MAX TEMP:  39;


$$

LAZ014-016-270100-
NORTHEAST LOUISIANA

CITY           SKY/WX    TMP DP  RH WIND       PRES   REMARKS
MONROE         CLOUDY    37  33  85 N9        30.29R WCI  30
6HR MIN TEMP:  37; 6HR MAX TEMP:  41;

TALLULAH       CLOUDY    35  30  82 N10       30.28R WCI  27
6HR MIN TEMP:  35; 6HR MAX TEMP:  41;


$$




USA.gov is the U.S. government's official web portal to all federal, state and local government web resources and services.